| time (UTC) | temp C | wind direction | speed KPH | gust KPH | rain 1hr cm | rain 24hr cm | rain mn cm | humidity % | barometer mb |
| 20260504081534 | 5 | 360 | 0.0 | 3.2 | 0.00 | 0.03 | 0.00 | 78 | 1010.9 |
| 20260504050021 | 1 | 288 | 0.0 | 3.2 | 0.00 | 0.03 | 0.00 | 85 | 1010.9 |
| 20260504044550 | 1 | 288 | 0.0 | 3.2 | 0.00 | 0.03 | 0.00 | 83 | 1010.9 |
| 20260504043008 | 1 | 288 | 0.0 | 1.6 | 0.00 | 0.03 | 0.00 | 83 | 1010.9 |
| 20260504041529 | 1 | 288 | 0.0 | 3.2 | 0.00 | 0.03 | 0.00 | 82 | 1010.9 |
| 20260504040050 | 1 | 288 | 0.0 | 3.2 | 0.00 | 0.03 | 0.03 | 82 | 1010.7 |
| 20260504034525 | 1 | 288 | 0.0 | 1.6 | 0.00 | 0.03 | 0.03 | 81 | 1010.6 |
| 20260504033046 | 1 | 288 | 0.0 | 1.6 | 0.00 | 0.03 | 0.03 | 79 | 1010.6 |
| 20260504031604 | 2 | 288 | 0.0 | 1.6 | 0.00 | 0.03 | 0.03 | 78 | 1010.5 |
| 20260504030023 | 2 | 288 | 0.0 | 1.6 | 0.00 | 0.03 | 0.03 | 77 | 1010.5 |
| 20260504024556 | 2 | 288 | 0.0 | 3.2 | 0.00 | 0.03 | 0.03 | 76 | 1010.4 |
| 20260504023005 | 2 | 288 | 0.0 | 0.0 | 0.00 | 0.03 | 0.03 | 75 | 1010.4 |
| 20260504021531 | 3 | 288 | 0.0 | 1.6 | 0.00 | 0.03 | 0.03 | 73 | 1010.3 |
| 20260504020051 | 3 | 288 | 0.0 | 1.6 | 0.00 | 0.03 | 0.03 | 71 | 1010.3 |
| 20260504014520 | 3 | 288 | 0.0 | 0.0 | 0.00 | 0.03 | 0.03 | 68 | 1010.1 |
| 20260504013047 | 4 | 288 | 0.0 | 1.6 | 0.00 | 0.03 | 0.03 | 66 | 1010.0 |
| 20260504011510 | 5 | 360 | 0.0 | 1.6 | 0.00 | 0.03 | 0.03 | 64 | 1009.9 |
| 20260504010029 | 6 | 360 | 0.0 | 1.6 | 0.00 | 0.03 | 0.03 | 61 | 1009.7 |
| 20260504004603 | 7 | 288 | 0.0 | 1.6 | 0.00 | 0.03 | 0.03 | 57 | 1009.5 |
| 20260504003021 | 7 | 360 | 0.0 | 1.6 | 0.00 | 0.03 | 0.03 | 53 | 1009.3 |
| 20260504001543 | 8 | 286 | 0.0 | 3.2 | 0.00 | 0.03 | 0.03 | 46 | 1009.1 |
| 20260504000007 | 9 | 294 | 0.0 | 14.5 | 0.00 | 0.03 | 0.03 | 44 | 1009.0 |
| 20260503234525 | 10 | 273 | 8.0 | 16.1 | 0.00 | 0.03 | 0.03 | 43 | 1008.8 |
| 20260503233051 | 10 | 318 | 6.4 | 16.1 | 0.00 | 0.03 | 0.03 | 42 | 1008.7 |
| 20260503231513 | 10 | 280 | 11.3 | 19.3 | 0.00 | 0.03 | 0.03 | 41 | 1008.6 |
| 20260503230036 | 10 | 282 | 4.8 | 29.0 | 0.00 | 0.03 | 0.03 | 40 | 1008.5 |
| 20260503224551 | 11 | 300 | 12.9 | 29.0 | 0.00 | 0.03 | 0.03 | 39 | 1008.2 |
| 20260503223020 | 11 | 281 | 14.5 | 38.6 | 0.00 | 0.03 | 0.03 | 37 | 1008.0 |
| 20260503221539 | 11 | 320 | 12.9 | 33.8 | 0.00 | 0.03 | 0.03 | 38 | 1008.0 |
| 20260503220007 | 11 | 309 | 4.8 | 40.2 | 0.00 | 0.15 | 0.03 | 39 | 1007.8 |
| 20260503214527 | 11 | 321 | 11.3 | 27.4 | 0.00 | 0.15 | 0.03 | 39 | 1007.6 |
| 20260503213054 | 11 | 355 | 12.9 | 27.4 | 0.00 | 0.15 | 0.03 | 38 | 1007.6 |
| 20260503211520 | 11 | 342 | 16.1 | 35.4 | 0.00 | 0.15 | 0.03 | 37 | 1007.5 |
| 20260503210033 | 11 | 317 | 12.9 | 30.6 | 0.00 | 0.25 | 0.03 | 37 | 1007.1 |
| 20260503204600 | 11 | 286 | 16.1 | 30.6 | 0.00 | 0.25 | 0.03 | 38 | 1007.0 |
| 20260503203021 | 11 | 267 | 17.7 | 29.0 | 0.00 | 0.25 | 0.03 | 36 | 1006.6 |
| 20260503201547 | 12 | 40 | 9.7 | 29.0 | 0.00 | 0.25 | 0.03 | 37 | 1006.5 |
| 20260503200009 | 11 | 265 | 11.3 | 37.0 | 0.00 | 0.25 | 0.03 | 39 | 1006.5 |
| 20260503194542 | 11 | 310 | 14.5 | 29.0 | 0.00 | 0.25 | 0.03 | 37 | 1006.5 |
| 20260503193057 | 11 | 336 | 14.5 | 35.4 | 0.00 | 0.25 | 0.03 | 40 | 1006.6 |
| 20260503191518 | 11 | 294 | 8.0 | 27.4 | 0.00 | 0.25 | 0.03 | 41 | 1006.6 |
| 20260503190042 | 11 | 261 | 8.0 | 24.1 | 0.00 | 0.25 | 0.03 | 42 | 1006.6 |
| 20260503184503 | 11 | 305 | 9.7 | 37.0 | 0.00 | 0.25 | 0.03 | 43 | 1006.7 |
| 20260503183022 | 12 | 327 | 9.7 | 29.0 | 0.00 | 0.25 | 0.03 | 43 | 1006.7 |
| 20260503181546 | 11 | 10 | 11.3 | 22.5 | 0.00 | 0.25 | 0.03 | 45 | 1006.7 |
| 20260503180015 | 11 | 355 | 9.7 | 30.6 | 0.00 | 0.25 | 0.03 | 48 | 1006.8 |
| 20260503174543 | 11 | 309 | 12.9 | 25.7 | 0.00 | 0.25 | 0.03 | 47 | 1006.8 |
| 20260503173058 | 10 | 42 | 3.2 | 37.0 | 0.00 | 0.25 | 0.03 | 55 | 1006.9 |
| 20260503171520 | 10 | 322 | 14.5 | 32.2 | 0.00 | 0.25 | 0.03 | 52 | 1007.0 |